Temp
27 26 26 26 26 26 26 26 26 26 26 26 26 26 26 26 26 26 26 26 26 26 26 26 26 26 26 26 26 26 26 25 26 25 25 25 25 25 25 25 25 25 25 26 26 26 26 26 26 26 26 27 27 28 28 28 28 28 28 28 28 28 27 27 27 27 28 28 29 29 29 29 29 28 28 28 28 27 27 27 27 27 27 27 27
27 26 26 26 26 26 26 26 26 26 26 26 26 26 26 26 26 26 26 26 26 26 26 26 26 26 26 26 26 26 26 25 25 26 26 25 25 26 26 26 25 25 25 25 26 26 26 26 26 26 27 27 27 27 28 29 29 29 28 28 28 28 28 27 27 27 28 28 28 29 29 29 29 28 28 28 27 27 27 27 27 28 28 27 27
27 26 26 26 26 26 27 27 26 26 26 27 27 27 27 27 26 26 26 27 26 26 26 26 26 26 26 26 25 25 25 25 25 26 26 25 25 26 26 26 26 26 26 26 26 26 26 26 26 27 27 27 27 27 28 28 28 28 28 28 28 28 28 27 27 27 28 28 28 28 29 28 28 28 28 28 27 27 27 27 26 27 27 27 27
27 26 26 26 26 26 27 27 27 27 27 27 27 27 27 27 27 27 27 27 27 27 26 26 26 25 25 25 25 25 25 25 26 26 26 26 25 26 26 26 26 26 26 26 27 27 27 27 27 27 27 27 27 27 27 28 28 28 28 28 28 28 28 28 27 27 27 28 28 28 28 28 28 28 28 28 27 27 27 27 26 26 26 26 27
27 26 26 26 26 26 27 27 27 27 27 27 27 27 28 28 27 27 27 27 27 27 27 26 26 26 26 26 26 25 25 25 26 26 26 26 26 26 26 26 26 26 26 26 26 26 27 27 27 27 27 27 27 27 28 28 28 28 28 28 28 28 28 28 28 27 27 27 28 28 28 28 28 28 27 27 27 27 27 27 26 26 26 26 26
27 26 26 26 26 26 26 27 27 27 27 28 28 28 28 28 28 27 27 27 27 27 27 26 26 26 26 26 26 26 26 26 25 26 26 26 26 26 26 26 26 26 26 26 26 26 27 27 27 27 27 27 27 27 27 27 27 28 28 28 28 27 27 27 27 27 27 27 28 28 28 28 28 28 27 27 27 27 27 26 26 26 25 25 26
26 26 26 26 26 25 26 26 27 27 27 27 28 28 28 28 28 27 27 27 27 27 27 27 27 26 26 26 26 26 26 25 25 25 25 26 26 26 26 26 26 26 26 27 27 27 27 27 27 27 27 27 27 27 27 27 27 28 28 27 26 26 27 27 26 26 27 28 28 28 28 28 28 28 27 27 26 26 26 26 26 26 25 25 25
25 25 25 26 26 25 25 26 26 27 27 27 27 27 28 28 28 27 27 27 27 27 27 27 27 27 26 26 26 26 26 26 25 25 25 26 26 26 26 26 26 26 27 27 27 27 27 27 27 27 27 27 26 26 27 27 27 27 27 26 25 25 26 27 26 26 26 27 28 28 28 28 28 27 27 27 26 26 26 26 26 26 25 25 25
25 25 25 25 25 25 25 26 26 26 26 26 26 27 27 27 27 27 27 27 27 27 27 27 27 27 27 27 26 26 26 26 26 26 26 26 26 26 26 26 26 26 26 27 27 27 26 26 26 26 26 26 26 26 26 26 26 26 26 26 25 25 26 26 26 26 25 26 27 28 28 28 28 28 28 27 27 26 26 25 25 26 25 25 25
25 25 25 25 25 25 25 25 25 25 25 25 25 26 26 27 27 27 27 27 27 27 27 27 27 27 27 27 26 27 27 27 26 26 26 26 26 26 26 26 26 26 26 26 26 26 26 26 26 25 25 25 25 25 25 25 26 26 26 25 25 25 25 25 25 24 24 26 27 28 28 28 28 28 28 28 27 26 26 25 25 25 25 25 25
25 25 25 25 25 24 24 24 24 25 25 25 25 25 25 26 26 26 26 26 26 26 26 26 26 27 27 27 27 27 27 26 25 24 25 25 25 26 26 26 26 26 25 25 25 25 25 25 26 26 25 24 24 24 25 25 25 26 26 26 25 25 25 25 25 24 25 26 27 27 28 28 27 27 27 27 27 26 25 25 25 25 24 25 25
25 25 25 25 25 24 25 24 24 24 24 24 25 25 25 25 25 25 26 26 26 26 26 26 26 26 27 27 27 27 26 25 25 25 24 24 24 24 25 25 25 25 25 25 25 25 25 26 26 25 25 25 25 24 24 24 24 25 26 26 26 25 25 25 25 25 26 27 27 27 27 27 26 27 26 25 25 24 24 24 24 24 24 24 25
25 25 25 25 24 24 24 25 24 24 24 24 24 24 24 24 25 25 25 26 26 26 26 26 26 26 26 26 27 26 26 25 25 25 24 24 24 24 24 23 24 24 24 25 25 25 25 25 25 25 25 25 25 24 24 24 24 24 25 25 25 25 25 25 25 26 26 26 26 26 26 26 25 25 24 23 23 23 24 24 24 24 24 24 24
25 25 24 24 24 23 24 24 24 24 24 24 24 24 24 24 25 25 25 25 25 25 26 26 26 26 26 26 26 26 25 25 25 25 25 25 25 25 23 23 24 25 24 24 24 24 24 24 24 24 24 24 24 24 24 24 24 24 24 24 24 25 25 25 25 25 25 25 26 26 25 24 24 23 22 22 22 23 23 23 23 23 23 23 23
24 24 24 24 24 23 24 24 24 24 24 23 23 24 24 24 24 24 24 24 24 25 25 25 25 25 25 25 26 25 24 24 25 25 24 24 25 24 23 23 24 24 24 24 24 24 24 24 23 24 24 23 24 24 23 23 24 24 23 23 24 25 24 24 24 24 24 24 25 25 24 23 23 22 22 22 22 22 22 22 22 22 23 23 23
24 24 24 24 24 23 23 23 23 23 23 23 23 24 24 24 24 24 24 24 24 24 24 24 24 24 24 24 24 24 24 24 24 24 24 24 24 23 23 24 24 24 24 24 24 24 24 23 23 23 23 23 23 23 24 23 23 24 24 24 25 25 25 24 24 24 23 23 24 24 23 22 22 21 21 21 22 22 22 23 23 23 24 23 24
24 24 24 23 23 23 23 23 23 23 23 23 23 23 23 23 23 23 23 23 23 23 23 23 23 23 23 23 23 23 22 22 23 22 23 23 23 23 23 24 24 25 24 24 25 24 23 23 23 22 22 22 22 23 23 23 23 23 24 24 25 25 24 22 22 23 22 22 22 22 21 21 20 21 21 21 21 21 22 23 23 23 24 23 23
23 23 23 23 23 22 22 22 22 22 22 22 22 23 23 23 22 22 22 23 23 22 22 22 22 22 22 22 22 22 21 21 21 21 21 22 22 22 23 24 24 25 24 25 25 23 21 21 22 21 21 21 21 22 22 22 22 22 23 23 23 23 22 20 21 21 21 21 21 20 20 20 20 20 20 20 21 21 21 21 22 22 23 23 23
22 21 21 22 22 22 22 22 22 22 22 22 21 22 22 22 22 22 22 22 22 22 22 22 22 22 21 20 20 20 19 19 20 20 20 20 21 21 22 23 24 24 24 25 24 21 20 21 21 20 20 20 20 21 21 21 21 21 22 22 22 21 20 20 20 20 20 19 19 19 19 19 19 20 20 20 20 20 20 20 21 21 21 22 22
20 20 20 21 21 21 21 21 20 21 21 21 21 21 21 21 21 21 21 21 21 21 21 21 21 20 19 19 18 18 18 18 19 19 19 20 20 21 21 22 23 22 23 23 21 19 19 20 20 19 19 19 19 19 20 20 20 20 20 20 20 20 20 19 19 19 19 18 18 18 18 18 18 18 19 19 19 19 18 19 19 19 19 21 21
19 19 20 20 20 20 20 20 20 20 20 20 20 21 20 20 21 21 21 20 20 20 20 20 19 18 17 17 17 17 17 18 18 19 19 19 20 20 20 20 20 20 20 20 19 18 18 19 19 18 18 18 19 19 19 19 19 19 19 19 19 19 19 18 18 18 18 17 17 17 17 17 17 18 18 18 19 18 18 18 18 18 18 19 20
19 19 19 19 19 19 19 19 20 20 19 19 20 20 19 20 20 21 20 20 20 19 19 18 17 17 16 16 16 17 17 17 18 18 18 18 19 19 19 19 19 19 19 18 17 17 17 17 17 17 17 18 18 18 18 19 18 18 18 18 18 18 18 17 17 17 17 17 17 17 17 18 18 18 18 18 18 18 18 17 17 17 17 17 18
18 18 18 18 19 19 19 19 19 19 19 19 19 19 19 19 20 20 20 19 19 18 18 17 16 16 16 15 15 16 16 16 17 17 17 18 18 18 18 18 18 18 18 17 16 16 16 16 16 16 17 17 17 17 18 18 18 17 17 17 17 17 17 17 17 17 17 17 17 17 17 18 19 18 18 18 17 17 17 16 16 16 16 16 16
17 17 17 18 18 18 18 18 18 18 19 19 19 19 19 19 19 19 19 18 18 17 16 16 16 15 15 15 15 15 15 15 16 17 17 17 17 17 17 18 18 18 17 17 16 15 15 15 15 16 16 16 16 17 17 17 17 16 16 16 16 16 16 16 16 16 16 16 17 17 17 17 17 17 17 16 16 16 16 16 16 16 16 16 15
17 17 17 17 17 17 18 17 17 17 18 18 19 19 18 18 18 18 18 17 17 16 16 16 15 15 15 14 14 15 15 16 16 16 16 16 16 17 17 17 18 17 17 16 16 16 15 15 15 16 16 16 16 16 16 16 16 16 16 16 16 16 16 16 16 16 16 16 16 16 16 16 16 15 15 16 16 16 17 17 17 17 17 16 16
17 17 17 17 17 17 18 17 17 17 17 17 18 18 18 18 17 17 17 17 17 16 16 16 15 15 15 14 14 14 15 16 16 16 16 16 16 16 17 17 17 17 17 16 16 15 15 15 16 16 16 16 16 16 16 16 16 16 16 16 16 15 15 16 16 16 16 16 16 16 16 15 15 15 15 15 16 16 16 17 17 17 17 17 16
18 18 18 17 17 17 17 17 17 17 17 17 17 17 17 17 17 17 17 17 17 17 16 15 15 15 15 15 15 14 15 15 16 16 16 16 16 16 16 17 17 17 17 16 16 15 15 16 16 15 15 15 15 16 16 16 16 16 16 16 16 15 15 16 16 16 15 15 15 15 15 15 15 15 15 15 15 15 15 15 16 16 16 16 16
18 18 18 18 17 17 17 17 17 17 17 17 17 17 17 17 17 17 17 17 17 17 17 16 16 16 16 16 16 15 15 15 15 15 16 16 16 16 16 16 16 16 17 17 16 16 16 16 16 15 15 15 16 16 16 16 16 16 16 16 16 16 16 16 16 15 15 15 15 14 14 15 15 15 15 15 15 15 15 15 15 15 16 16 16
18 18 18 18 18 18 18 18 17 17 17 17 17 17 17 17 17 17 17 17 17 17 17 17 17 17 17 16 16 16 16 16 15 16 16 16 16 16 16 16 16 16 16 16 17 17 17 17 17 17 17 17 17 17 17 17 16 16 16 16 16 16 16 16 16 15 15 15 15 15 15 15 15 15 16 15 15 15 14 14 14 15 15 15 16
19 19 19 19 18 19 19 18 18 17 17 17 16 16 16 16 17 17 17 17 17 17 17 17 17 17 16 16 16 17 16 16 16 16 16 16 16 16 16 15 16 16 16 16 17 18 19 19 19 19 19 19 19 19 18 18 18 17 17 17 17 17 17 17 16 16 16 16 16 16 16 16 16 16 16 16 15 15 15 14 14 14 15 15 16
19 19 19 19 18 19 19 19 18 18 18 17 17 16 16 16 16 16 16 16 17 17 17 17 17 17 17 16 16 16 16 17 16 16 16 16 16 16 16 16 16 16 16 16 17 18 18 18 18 18 18 18 19 19 19 18 18 18 18 18 17 17 17 16 16 17 17 16 16 16 16 16 16 16 16 15 15 15 15 14 14 15 15 15 15
19 19 19 19 18 19 19 19 19 19 19 18 18 18 18 17 16 16 16 16 16 16 16 16 16 16 16 16 16 16 16 16 16 16 16 16 16 16 16 16 16 16 16 16 17 18 18 18 17 18 18 18 18 18 18 17 17 17 18 17 16 16 15 15 15 15 16 16 16 15 15 15 15 15 15 15 14 15 15 14 14 14 14 14 14
19 19 19 19 19 19 19 19 19 19 19 19 19 19 19 19 18 16 16 16 16 16 16 16 16 16 16 16 16 16 16 16 16 16 16 16 16 16 16 16 16 16 16 17 18 18 18 18 18 18 18 18 18 17 17 17 16 16 16 16 15 14 14 13 14 14 14 14 14 14 14 14 14 14 14 14 13 13 13 13 13 14 14 14 14
18 18 18 18 19 19 19 19 19 19 19 19 19 20 20 19 19 18 17 17 16 16 16 16 16 16 16 16 16 16 16 16 16 16 16 16 16 16 16 16 16 16 17 18 18 18 19 19 18 18 18 17 17 17 16 16 16 15 15 15 14 13 13 13 13 13 13 13 13 12 12 12 12 12 12 12 12 12 12 12 12 12 12 12 12
18 18 18 18 18 19 18 18 18 18 18 19 19 19 19 19 19 19 19 18 18 17 16 16 16 16 16 16 16 16 16 16 16 16 16 16 16 16 16 17 17 17 17 18 18 18 18 18 18 17 17 16 16 16 16 15 15 15 15 14 14 13 13 13 13 12 12 12 12 11 10 10 10 10 10 10 10 10 11 11 11 10 10 11 11
19 19 18 18 19 19 18 18 18 18 18 19 19 19 19 19 19 19 19 19 18 18 17 16 15 15 16 16 16 16 16 16 16 16 16 16 16 17 17 18 18 18 17 17 17 17 17 17 17 17 17 16 16 16 16 15 14 14 14 14 13 13 13 13 12 11 11 12 11 11 10 10 10 10 10 10 10 10 10 10 10 9 9 9 9
19 19 19 19 19 19 18 18 18 18 18 18 19 19 19 19 19 19 19 19 19 18 17 16 15 15 15 15 15 16 16 16 16 16 16 16 16 17 18 18 18 17 17 17 17 16 16 16 16 16 16 16 15 15 15 14 14 14 13 13 13 12 12 11 11 10 11 11 11 10 10 10 9 9 9 9 9 10 10 10 9 9 9 9 9
18 18 18 18 18 18 18 18 18 18 18 18 19 19 19 19 19 19 19 19 19 19 18 17 16 17 16 15 15 15 15 15 16 16 16 16 17 17 17 17 17 17 17 16 16 16 16 15 15 15 15 15 14 14 14 14 14 14 13 13 12 11 11 11 10 10 10 10 10 10 9 9 9 9 8 8 8 9 9 9 9 9 9 9 9
17 17 17 17 17 18 19 19 18 18 18 19 19 19 19 19 19 19 19 19 19 19 19 18 18 18 18 16 15 15 15 16 17 17 17 17 17 17 17 17 17 16 16 16 15 15 15 15 14 14 14 14 14 14 13 13 13 12 12 12 12 11 11 11 11 10 10 10 10 10 10 9 9 9 8 8 8 8 8 8 8 8 9 9 9
18 17 16 16 17 18 18 19 19 19 19 19 19 19 19 19 19 19 19 19 19 19 19 19 19 19 18 17 16 16 17 18 18 18 17 17 17 17 17 16 16 16 15 15 15 15 15 14 14 14 13 13 13 13 13 13 13 12 12 12 12 12 11 11 11 10 10 10 10 10 10 9 9 9 8 8 8 8 8 8 8 8 8 8 9
18 18 17 16 17 17 18 18 19 19 18 18 18 19 19 19 19 19 19 19 19 19 19 19 19 18 17 16 16 16 17 18 18 18 17 17 17 16 16 16 15 15 15 15 14 14 14 14 13 13 13 13 13 12 12 12 12 12 12 12 12 12 11 11 10 10 9 9 9 9 9 9 8 8 8 8 8 8 8 8 8 8 8 9 9
18 18 18 17 17 18 18 18 18 17 17 17 18 18 18 18 18 19 19 19 19 19 19 19 18 17 16 16 16 16 16 17 18 17 17 17 16 16 16 15 15 15 15 14 14 13 13 13 13 13 12 12 12 12 12 12 12 12 12 11 11 11 11 11 10 9 9 9 9 8 8 7 7 7 7 7 7 8 8 8 8 8 8 9 9
17 18 18 18 18 18 18 18 18 17 17 17 17 17 17 18 18 18 18 18 18 19 19 19 18 17 16 16 16 15 15 16 17 17 16 16 16 16 16 15 15 14 14 14 13 13 13 13 13 12 12 11 11 11 11 11 11 11 11 11 11 10 10 10 10 9 9 9 8 8 8 8 7 7 7 7 7 7 8 8 8 8 8 8 9
17 17 17 17 17 17 17 17 17 17 17 17 17 17 17 17 17 18 18 18 18 18 18 18 18 17 16 16 15 15 15 16 16 16 16 16 15 15 15 15 14 14 13 13 13 12 12 12 12 11 11 11 11 10 10 10 10 10 11 11 11 10 10 10 10 9 8 8 8 8 8 8 7 7 7 7 7 7 8 8 8 8 8 8 8
17 17 17 17 17 17 17 16 16 16 16 17 17 17 17 17 17 17 17 17 18 18 17 17 18 17 16 16 16 16 16 16 16 16 15 15 15 15 15 14 14 13 13 13 12 12 12 12 12 11 11 11 10 10 10 10 10 10 10 10 10 10 10 9 8 8 7 7 7 7 7 7 7 6 6 6 6 7 7 7 7 7 7 7 8
17 17 17 18 18 18 17 17 17 17 17 17 17 17 17 17 17 17 17 17 17 17 17 17 17 17 16 16 16 16 16 16 16 15 15 15 15 14 14 14 13 13 13 12 12 12 12 11 11 11 11 10 10 10 10 10 10 10 10 9 9 8 9 8 7 7 6 6 6 6 6 6 6 6 5 5 6 6 6 7 7 7 7 7 7
16 17 17 17 17 17 17 17 17 17 17 17 17 17 17 17 17 17 17 17 16 16 17 17 17 17 16 16 16 16 16 16 15 15 15 15 14 14 14 13 13 13 12 12 12 11 11 11 11 11 10 10 10 10 10 10 10 10 9 9 8 7 7 7 6 6 6 5 5 5 5 5 5 5 5 5 5 5 6 6 7 7 7 6 6
16 16 16 16 16 17 17 17 17 17 17 17 17 17 17 17 17 17 17 17 16 16 17 17 17 17 16 16 16 15 15 15 15 15 14 14 14 13 13 12 12 12 12 12 11 11 11 11 11 10 10 10 10 10 9 9 9 9 8 8 7 6 6 6 5 5 5 5 5 4 4 4 5 5 4 4 4 5 5 5 6 6 6 6 6
16 16 16 16 16 16 16 16 16 16 16 17 16 16 16 17 17 17 17 17 17 16 16 16 16 16 16 16 15 15 15 15 15 14 14 13 13 12 12 12 12 12 12 12 11 11 11 11 10 10 10 10 10 9 9 9 9 9 8 7 6 6 5 5 5 5 4 4 4 4 4 4 4 4 4 4 4 4 5 5 5 5 5 5 5
15 15 15 16 16 16 16 16 16 16 16 16 16 16 16 16 16 16 16 16 16 16 16 15 15 15 15 15 15 15 14 14 14 13 13 12 12 12 12 11 11 11 12 12 11 11 11 10 10 10 10 10 9 9 9 9 9 8 7 6 6 5 5 4 4 4 4 4 4 4 4 4 4 4 4 4 4 4 4 4 4 4 4 5 5
15 15 15 15 15 15 15 15 15 16 16 16 16 16 16 16 16 16 16 16 16 16 15 15 15 15 15 14 14 14 14 14 13 13 12 12 12 12 12 11 11 11 11 11 11 10 10 10 10 10 10 10 9 9 9 8 8 7 6 6 5 5 4 4 4 4 3 3 4 4 4 4 4 4 4 4 4 4 4 4 4 4 4 5 5
Height
836 838 839 841 842 843 845 846 848 850 850 852 853 853 855 855 856 857 857 858 859 859 860 861 862 862 863 863 864 864 865 865 866 866 867 867 867 868 867 868 868 868 868 867 867 867 867 866 866 866 865 865 864 863 862 861 861 861 860 860 860 860 859 859 859 857 856 855 854 854 853 853 852 852 851 850 849 848 847 846 844 843 842 841 840
834 836 838 839 841 842 843 845 846 848 848 850 850 851 853 853 854 855 856 857 857 858 859 859 860 861 861 862 862 863 863 864 865 865 865 866 866 866 866 866 866 866 866 866 866 866 865 865 865 864 864 863 863 862 861 860 859 859 859 858 858 858 858 858 858 857 856 855 854 853 853 852 851 851 850 850 849 847 846 845 844 842 841 840 840
832 834 836 838 839 840 842 843 844 846 847 848 848 849 850 851 852 853 854 855 855 856 857 857 858 859 860 860 861 862 862 862 863 863 864 864 864 864 864 864 864 864 864 864 864 864 863 863 863 862 862 862 861 861 860 859 858 858 858 857 857 857 857 857 857 857 855 854 854 853 852 852 851 850 850 849 848 847 845 845 844 843 841 840 839
831 833 834 836 838 839 840 841 842 843 844 845 846 847 848 849 850 851 852 853 853 854 855 856 857 858 858 859 859 860 861 861 861 862 862 862 862 863 863 862 862 862 862 862 862 861 861 861 861 860 860 860 860 860 859 858 858 857 857 857 856 856 856 855 856 856 855 854 853 852 851 851 850 849 849 848 847 846 845 844 843 842 841 839 838
829 831 833 835 836 837 838 839 840 841 842 843 844 845 846 847 848 849 850 851 851 852 853 854 855 856 856 857 858 858 859 859 860 860 860 860 861 861 861 861 861 860 860 860 860 860 859 859 859 859 859 858 858 858 857 857 857 856 856 855 855 855 854 854 854 854 853 853 852 851 850 850 849 848 848 847 846 845 844 843 842 841 840 839 838
827 829 831 832 834 836 837 837 838 839 840 841 842 843 844 845 846 847 848 849 850 851 852 853 853 854 855 855 856 856 857 858 858 858 859 859 859 859 859 859 859 858 858 858 858 858 857 857 857 857 857 856 856 856 856 856 856 855 855 854 854 854 854 854 854 853 852 851 850 849 848 848 847 847 847 846 845 844 843 842 841 840 840 838 837
826 827 829 830 832 833 834 836 836 837 838 839 840 841 842 843 844 845 846 848 849 849 850 851 852 852 853 854 854 855 855 856 856 856 857 857 857 857 857 857 857 856 856 856 856 855 855 855 855 855 855 854 854 854 854 855 854 854 854 854 854 854 853 853 853 853 851 849 848 847 847 846 846 846 845 845 845 844 843 841 840 840 839 838 836
823 825 827 828 829 830 832 833 834 836 837 838 839 840 840 842 842 844 845 846 847 847 848 849 849 850 851 852 852 853 853 854 854 854 855 855 855 855 855 855 855 854 854 854 854 854 853 853 853 852 852 852 853 853 853 853 853 853 853 853 854 854 853 852 852 852 851 848 847 847 846 846 845 844 844 844 843 843 842 841 840 839 838 837 836
821 823 824 826 827 828 830 832 833 834 836 836 838 839 839 840 841 843 844 844 845 846 846 847 848 848 849 850 850 851 851 851 852 852 853 853 853 853 853 853 853 853 852 852 852 852 852 852 852 852 852 851 852 852 852 852 852 852 852 852 853 853 852 852 851 850 851 849 846 846 845 844 843 843 843 842 842 842 841 841 840 838 838 836 835
818 820 821 823 825 827 828 830 831 833 834 835 836 837 838 839 840 841 842 843 844 845 845 846 846 847 847 848 848 849 849 849 849 850 851 852 852 852 851 851 851 851 851 851 851 851 850 850 850 852 853 852 852 852 852 852 852 852 851 851 851 851 850 850 850 850 851 848 845 844 843 842 842 842 842 841 841 841 840 840 839 838 837 836 835
816 817 819 820 823 825 827 828 830 831 832 834 835 836 837 838 839 840 841 842 843 844 844 845 845 846 846 846 846 846 846 846 848 849 851 851 851 850 850 850 850 850 850 850 850 850 850 849 849 850 851 851 851 851 852 853 852 851 850 849 849 849 849 848 848 850 849 846 843 843 842 842 842 842 841 840 840 840 840 839 838 838 837 836 835
816 817 818 820 822 824 825 827 828 829 831 832 833 834 836 836 837 839 839 840 841 842 843 843 844 844 844 844 844 844 844 845 846 848 849 850 850 850 849 849 848 849 850 849 849 849 848 848 848 848 848 848 847 848 850 852 851 850 848 847 847 847 847 846 846 847 847 844 843 843 842 842 842 841 841 840 840 840 839 839 838 837 837 836 835
815 816 817 819 821 823 824 826 827 828 829 830 832 832 834 835 836 837 838 839 840 840 841 841 842 842 843 843 843 843 843 843 844 846 847 847 848 848 848 848 847 847 847 847 847 847 847 846 846 846 846 846 846 847 848 849 849 849 847 846 845 844 844 844 844 844 844 844 843 842 842 842 841 841 841 840 840 839 838 838 837 837 837 836 835
812 814 816 818 820 822 824 825 826 827 828 829 830 831 832 833 834 835 836 837 838 839 839 840 840 841 841 841 842 842 842 841 842 844 845 845 845 845 846 847 845 845 845 845 845 845 845 844 844 844 845 845 844 845 846 847 847 846 845 844 843 842 841 841 841 841 842 842 842 842 841 841 841 840 840 840 839 839 838 838 837 837 837 836 835
810 812 814 816 818 820 822 824 825 826 827 828 829 830 831 832 833 834 834 835 836 837 837 838 839 839 840 840 840 840 840 840 841 842 842 843 843 843 844 844 843 842 842 842 843 842 842 843 843 843 843 843 843 843 844 844 844 843 842 842 841 839 838 839 840 839 839 840 841 840 840 840 840 840 840 839 839 839 838 837 837 837 836 835 835
808 810 812 814 816 818 820 822 824 825 826 827 828 829 830 831 832 833 833 834 835 835 836 836 837 838 839 839 840 840 839 839 839 840 840 841 841 841 842 842 841 840 840 840 840 839 839 840 841 841 842 842 841 841 841 842 841 840 840 839 837 836 835 836 837 837 837 838 838 838 838 838 838 838 838 839 839 838 837 837 836 836 836 835 835
807 809 811 813 815 816 818 820 822 824 825 826 827 827 828 830 831 832 832 833 833 834 834 835 835 836 837 838 839 840 838 837 838 838 838 839 839 839 840 840 840 839 838 838 838 836 836 837 838 840 841 841 839 839 839 839 838 838 838 836 836 836 835 834 835 836 836 836 837 837 837 837 837 837 837 837 837 837 837 836 836 836 836 836 835
807 809 811 812 813 815 817 819 821 823 824 826 827 827 827 828 830 831 832 832 832 833 834 834 835 835 835 835 837 839 838 837 837 837 837 838 837 838 838 838 837 837 836 836 836 834 833 835 836 837 839 838 837 837 836 836 836 836 836 836 835 836 837 836 836 836 836 836 836 836 837 837 837 837 837 837 837 837 837 837 837 837 837 837 836
808 809 812 814 814 815 816 818 820 822 824 825 826 827 827 827 828 830 831 831 832 833 833 834 835 835 836 835 835 837 837 836 837 837 837 837 837 837 837 836 836 836 835 835 835 833 832 833 833 834 835 836 835 835 834 834 835 835 834 834 834 835 836 836 834 834 835 836 836 837 838 837 837 837 837 838 838 838 838 838 837 838 838 838 836
809 810 813 815 816 816 816 817 819 821 823 822 822 825 827 827 827 828 829 830 831 832 833 834 835 835 836 835 835 835 836 835 836 836 836 836 836 836 837 835 834 834 834 834 835 834 832 832 831 832 833 833 833 833 833 833 834 834 833 833 833 834 835 834 833 833 834 835 835 836 838 838 839 839 839 840 840 840 839 838 838 838 839 838 837
810 812 814 815 817 816 815 816 817 820 823 821 819 821 825 827 826 826 828 829 830 831 832 833 834 835 835 835 834 835 835 835 835 836 835 836 836 836 836 834 833 834 834 834 834 834 832 831 831 832 832 832 832 832 832 832 832 833 833 833 833 833 833 833 834 834 834 834 835 837 838 840 841 841 841 841 842 841 840 839 838 838 839 839 838
812 813 815 816 816 815 814 815 817 820 822 821 819 820 824 826 825 825 827 828 829 831 832 832 833 834 835 835 835 835 835 835 835 835 835 835 835 835 835 834 833 833 833 834 834 834 833 832 832 832 832 832 832 831 831 831 832 832 832 833 833 833 832 832 834 835 836 836 836 838 840 840 841 842 842 842 843 843 842 840 839 839 839 840 840
813 814 815 815 815 815 816 817 819 821 820 820 820 821 823 826 826 825 826 827 828 830 831 832 834 835 835 836 836 836 836 836 835 835 836 836 836 837 836 834 833 832 832 833 834 835 835 833 833 833 833 832 832 831 831 831 831 832 833 833 834 834 834 834 834 835 838 839 839 840 840 840 841 843 843 843 843 844 843 841 840 840 840 840 840
815 815 815 815 816 817 818 819 820 819 818 818 819 821 823 826 827 826 826 826 828 829 831 832 833 835 836 837 837 837 836 836 836 836 837 838 839 838 837 835 834 833 833 834 834 835 836 835 834 834 834 833 833 832 832 832 832 833 834 834 835 836 837 837 837 837 839 840 841 841 841 841 842 842 842 842 843 843 843 841 840 840 840 840 840
817 817 817 818 819 820 820 820 820 820 819 819 820 821 825 826 826 826 826 827 828 830 831 833 833 835 836 837 837 837 837 836 837 837 838 840 840 839 838 836 835 835 835 835 835 836 838 838 836 835 835 835 835 834 834 834 834 835 836 836 837 837 838 839 839 839 840 842 842 842 842 842 842 842 842 842 843 843 842 841 840 840 840 840 840
820 820 821 822 822 822 822 822 822 822 823 823 822 823 826 826 826 826 826 828 829 831 832 833 834 834 835 836 837 838 838 838 838 838 839 840 841 840 838 837 836 836 836 836 836 838 839 839 838 837 836 836 836 836 836 836 836 837 838 839 839 839 840 841 841 841 843 843 844 844 843 843 843 842 842 842 843 842 842 841 840 840 840 840 839
823 824 824 825 825 825 824 825 826 826 827 825 824 825 827 827 826 826 827 829 830 832 833 835 835 835 836 837 839 840 840 840 840 839 840 840 840 839 838 837 837 837 837 837 838 839 840 839 839 838 838 837 837 837 838 838 838 839 840 841 841 841 842 842 842 842 843 844 844 844 843 843 843 843 843 843 843 842 841 841 840 840 840 840 839
826 826 826 826 827 828 828 828 829 829 829 827 826 827 829 829 828 828 829 830 831 833 835 836 836 837 837 838 840 841 842 842 842 841 840 840 839 839 838 839 839 839 839 839 840 840 841 840 840 840 840 839 840 840 841 841 841 841 841 842 842 843 843 843 843 843 843 844 844 844 844 844 844 844 844 843 843 842 842 841 841 841 840 840 838
828 828 828 829 830 830 830 830 831 831 831 830 829 829 831 832 832 831 831 832 833 834 835 835 836 837 838 839 841 842 842 842 841 840 839 839 838 838 838 838 839 839 839 840 840 841 841 841 841 841 841 841 842 842 842 843 843 844 844 844 844 844 845 844 844 844 845 845 844 844 844 844 844 844 844 844 843 843 842 842 842 841 840 840 838
829 829 830 831 831 831 832 832 833 833 834 833 832 832 833 834 833 833 833 834 834 835 835 836 836 837 838 839 840 841 841 840 840 839 839 838 838 838 837 838 839 839 840 840 841 841 841 841 841 841 841 842 842 843 843 844 845 845 846 846 847 847 846 846 846 846 846 846 845 845 845 845 844 844 844 843 843 843 842 842 842 842 841 840 838
830 831 831 832 832 833 833 834 834 834 835 835 834 835 835 835 834 834 835 835 835 836 836 837 837 838 839 839 839 840 840 839 839 839 839 838 838 838 838 838 839 840 840 841 841 842 842 843 843 843 843 844 844 844 845 845 846 846 846 847 848 848 848 848 848 847 847 846 846 846 845 845 845 845 844 844 844 843 843 842 842 841 841 840 838
831 832 833 833 834 834 835 835 835 836 836 836 836 836 836 836 836 836 836 837 837 837 838 838 838 839 839 839 839 840 840 840 840 840 839 839 839 839 839 839 840 841 841 842 843 843 843 844 845 844 845 846 846 846 847 847 848 847 847 848 850 850 850 849 849 848 848 847 847 847 847 846 846 846 846 845 845 844 843 843 842 841 840 840 839
833 834 835 835 835 836 836 836 836 836 836 836 836 836 836 837 837 838 839 839 839 839 839 839 840 840 840 840 840 840 841 841 841 841 840 840 840 840 840 841 841 842 842 843 843 844 843 844 845 845 846 847 847 848 848 849 849 849 849 850 851 851 851 850 850 849 849 849 849 848 848 848 848 847 847 847 846 846 845 844 843 842 841 840 839
835 836 836 836 837 837 837 837 837 837 837 837 837 837 837 838 838 839 840 840 840 841 841 841 841 841 841 841 842 842 842 842 842 842 842 842 842 842 842 842 843 843 843 844 844 844 844 845 846 847 847 848 848 849 850 850 850 851 851 851 851 851 851 851 851 850 850 850 850 849 849 849 849 848 848 848 847 847 846 845 844 843 842 841 840
836 837 837 837 837 837 838 838 838 838 838 838 838 838 839 839 839 840 840 841 841 842 842 843 843 843 843 843 843 843 843 843 843 843 843 844 844 844 844 844 844 844 845 845 845 845 846 846 847 848 849 849 850 850 851 851 851 851 851 852 852 852 852 852 851 851 851 851 851 850 850 850 850 849 849 848 848 847 847 846 845 844 843 842 841
837 837 837 838 838 838 838 838 839 839 839 839 839 839 840 840 840 840 840 841 842 843 843 844 844 844 844 844 845 845 845 845 845 845 845 845 845 845 845 845 845 845 846 847 847 847 848 848 849 850 850 851 851 851 852 852 852 852 852 852 853 852 852 852 852 852 852 852 851 851 851 850 850 850 849 848 848 847 846 846 845 844 843 842 841
838 838 838 838 838 838 839 839 839 840 840 840 840 840 840 840 840 841 841 841 842 843 844 845 845 845 846 846 846 846 846 846 847 847 847 847 846 846 846 846 846 846 847 848 848 849 849 850 851 851 851 852 852 852 852 852 852 853 853 853 853 853 853 852 852 852 852 852 851 851 851 851 851 850 850 849 848 847 846 845 845 844 843 842 841
838 838 838 838 839 839 839 840 840 840 840 840 840 840 839 840 840 841 841 842 842 843 844 845 846 846 846 847 847 848 848 848 848 848 848 848 847 847 847 847 848 848 848 849 850 850 850 851 852 852 852 853 853 853 853 853 853 853 853 853 854 853 853 852 852 852 852 852 852 852 852 851 851 850 850 849 848 847 846 845 844 843 842 842 840
839 839 839 839 839 839 839 839 840 840 840 840 840 840 840 839 840 840 840 841 842 842 843 844 845 845 845 847 848 848 848 848 847 847 848 848 849 849 849 849 849 849 850 850 851 851 852 852 853 853 853 853 854 854 854 854 854 854 853 853 853 853 853 852 852 852 852 852 852 852 852 851 851 851 850 849 848 847 846 845 845 844 843 842 840
839 839 840 839 839 839 839 839 839 840 840 840 840 840 840 840 840 840 840 840 841 841 842 843 843 843 845 846 847 848 847 846 846 847 848 848 849 850 849 850 850 851 851 852 852 852 853 853 854 854 854 854 854 855 854 854 854 854 854 854 853 853 853 853 852 852 852 852 852 852 852 852 851 850 850 849 848 847 846 845 845 844 843 842 841
838 839 840 839 840 840 839 839 839 839 840 840 840 840 840 840 840 840 840 840 840 840 841 842 843 843 845 846 846 847 846 845 845 846 847 848 849 850 850 851 851 851 852 853 853 853 854 854 854 855 855 855 855 855 855 855 855 854 854 854 854 853 853 853 853 853 853 853 853 853 853 852 852 851 850 849 848 847 846 845 844 843 842 841 840
838 839 839 839 839 839 839 839 839 840 840 840 840 840 840 840 840 840 840 840 840 840 841 841 843 844 844 845 845 846 846 846 845 846 847 847 848 849 850 851 852 852 852 853 853 854 854 855 855 855 855 856 856 856 855 855 855 855 855 855 854 854 854 853 853 853 853 853 853 853 853 853 852 851 850 849 848 847 846 845 844 843 842 841 840
838 838 838 838 838 838 838 838 839 839 840 840 840 840 840 840 840 840 840 840 840 840 840 841 842 843 844 844 844 845 846 846 846 846 847 847 848 849 850 851 852 852 852 853 854 854 855 855 855 856 856 856 856 856 856 856 856 856 856 855 855 855 855 854 854 854 853 853 853 853 853 852 852 851 850 849 848 847 846 845 844 843 842 841 840
838 838 838 838 838 838 839 839 839 839 839 839 840 840 840 840 840 840 840 840 840 840 840 840 841 842 843 844 844 844 845 845 845 846 846 847 848 848 849 850 851 852 852 853 854 854 854 855 855 856 856 856 856 856 856 856 856 856 856 856 856 856 855 855 855 855 854 854 854 853 853 852 851 851 850 849 848 847 846 845 844 843 842 841 840
838 838 838 838 838 838 839 839 839 839 839 839 839 839 839 839 839 839 839 839 839 840 840 840 841 842 843 843 844 844 844 844 844 845 846 847 848 849 849 850 851 852 852 853 853 854 854 855 855 855 856 856 856 856 857 857 857 857 856 856 856 856 855 855 855 855 855 855 854 854 853 852 852 851 851 850 849 848 846 845 844 843 842 841 840
839 838 838 838 838 838 838 838 839 839 839 838 838 838 838 838 838 838 838 838 838 839 839 839 840 841 842 842 842 843 843 843 844 844 845 846 847 848 849 850 850 851 852 853 853 854 854 855 855 855 856 856 857 857 857 857 857 857 856 856 856 856 856 856 856 856 856 855 855 854 854 853 852 852 851 850 849 848 847 845 844 843 842 842 841
839 839 838 838 838 838 838 839 839 839 838 838 838 837 837 837 837 837 837 838 838 838 838 837 838 839 840 841 841 841 842 843 843 843 844 845 846 847 848 849 850 851 852 852 853 854 854 855 855 855 856 856 857 857 857 857 857 856 856 856 856 856 856 856 856 856 856 855 855 855 854 853 852 852 851 850 849 848 847 846 844 843 842 842 841
839 839 838 838 838 838 838 838 838 838 838 837 837 837 837 837 837 836 836 836 836 836 836 836 836 837 838 839 840 840 841 842 842 843 844 845 845 847 848 849 850 851 852 853 853 854 854 855 856 856 856 856 856 856 856 856 856 856 856 856 855 855 855 856 856 856 856 856 855 855 854 853 853 852 851 851 850 848 847 846 845 844 843 842 841
839 838 838 838 838 838 837 837 837 837 837 836 836 836 836 836 836 835 835 835 835 835 835 835 836 836 836 837 838 839 840 841 841 843 844 845 846 846 847 849 850 851 852 853 854 854 855 855 856 856 856 856 856 856 856 856 855 855 855 855 854 854 855 856 856 856 856 855 855 854 854 853 853 852 851 851 850 849 848 847 845 844 844 842 841
838 838 838 838 838 837 837 837 837 837 836 836 836 835 835 835 835 835 835 835 835 834 835 835 835 835 836 837 837 838 840 840 841 843 844 846 847 847 848 849 850 850 851 852 853 854 854 855 855 855 855 855 855 855 855 855 855 854 854 854 853 853 854 855 855 855 855 855 855 854 853 853 853 852 851 851 850 849 848 847 846 845 844 842 841
838 838 838 837 837 837 837 836 836 836 836 835 835 835 834 834 834 834 834 835 834 834 835 835 835 835 836 837 837 839 840 841 842 843 845 846 847 847 848 849 849 850 851 852 852 853 854 854 853 854 854 854 854 854 854 853 853 853 853 853 853 853 854 854 854 854 854 854 854 853 853 853 852 852 851 850 850 849 848 847 846 845 844 842 841
Wind_Speed
18 17 17 16 16 16 16 17 16 16 14 13 13 12 11 11 10 9 9 9 9 9 10 10 9 9 9 9 9 9 9 9 9 9 9 9 9 9 8 8 8 9 9 9 9 8 8 8 9 9 9 9 9 10 10 9 9 8 8 7 7 6 5 6 8 7 8 8 8 8 8 8 8 8 9 10 10 11 11 10 10 10 10 10 10
18 17 16 16 16 16 16 16 16 15 15 14 14 13 12 11 11 10 10 10 10 10 10 10 10 10 10 10 9 9 9 9 9 9 10 10 10 10 10 9 10 10 9 9 10 9 9 9 10 10 9 10 10 10 10 9 9 8 8 7 7 6 5 5 7 8 8 8 8 8 8 8 8 8 9 10 10 11 11 12 12 12 10 11 12
17 16 16 16 16 15 15 15 15 15 15 14 14 14 13 12 12 11 11 10 10 11 11 10 10 10 10 10 9 9 9 9 10 10 10 10 10 11 10 9 10 10 10 10 10 10 10 10 11 10 9 9 8 9 9 9 9 8 8 8 8 7 6 6 6 8 9 9 9 9 9 9 10 10 9 10 10 11 12 12 13 14 12 12 13
16 16 16 16 16 15 15 16 15 16 16 15 14 14 13 12 12 12 12 11 11 11 11 10 10 10 10 11 10 10 10 10 10 10 11 11 11 11 11 10 11 11 11 11 11 11 11 11 11 10 10 9 8 9 9 8 8 8 8 8 8 8 8 7 7 8 9 10 10 10 10 10 11 10 10 10 11 11 11 11 11 12 11 12 13
17 16 16 16 16 16 16 16 16 16 16 15 15 15 14 13 13 12 12 12 11 10 10 10 10 11 11 11 11 10 10 10 10 11 11 11 11 11 11 11 11 12 12 12 12 12 12 12 11 11 10 10 9 9 9 8 8 9 9 8 8 8 8 8 9 9 9 11 11 11 11 11 11 10 10 10 11 12 11 11 11 10 10 11 12
17 17 16 16 16 16 16 16 16 16 16 16 15 15 15 14 13 13 12 12 11 11 10 10 10 10 11 11 11 11 10 10 10 11 11 12 11 11 11 11 12 12 12 12 12 13 13 12 12 11 11 11 10 9 8 8 9 9 9 9 8 8 8 9 10 10 10 11 12 11 11 11 10 10 9 9 10 12 11 11 11 9 9 11 12
17 17 16 16 16 17 17 17 16 16 16 15 15 14 14 14 14 13 12 12 12 12 11 11 10 10 10 11 11 11 10 10 11 11 12 12 12 12 12 12 13 12 12 13 13 13 13 13 12 12 11 11 11 10 9 9 10 10 8 7 8 8 8 8 11 12 11 11 11 11 11 11 10 10 9 7 8 10 9 10 11 10 10 11 11
17 17 17 16 16 17 18 17 17 16 15 15 14 14 14 14 13 13 12 12 12 12 12 11 11 11 11 11 11 11 11 11 11 11 12 12 12 13 13 13 13 13 13 13 13 13 13 13 13 13 12 11 10 10 9 9 9 9 7 7 8 9 8 8 10 11 12 12 11 10 12 11 9 9 9 7 8 8 8 9 10 11 11 11 10
17 17 17 17 17 16 16 16 16 16 15 14 14 14 13 13 13 12 12 12 12 11 11 11 11 11 11 11 11 11 12 13 13 12 12 12 12 13 13 13 13 13 12 13 12 12 13 13 14 13 11 10 11 11 10 10 11 10 8 7 9 9 8 8 8 9 11 12 11 10 10 10 9 9 9 9 9 9 8 9 11 12 12 12 9
18 17 17 18 17 15 13 13 14 15 15 14 14 14 13 12 12 12 12 12 11 10 10 10 11 11 11 11 11 12 13 13 12 13 13 12 12 12 12 12 12 11 12 13 13 13 14 16 16 15 14 13 14 13 13 12 12 12 11 10 9 8 7 7 8 10 11 11 10 10 10 10 11 11 11 11 10 8 8 10 13 13 12 11 8
16 17 17 16 15 13 12 11 11 12 14 14 14 13 13 12 11 11 11 11 10 10 10 11 11 12 12 11 12 13 11 9 10 12 13 13 13 13 13 12 12 11 12 14 15 15 15 15 15 13 12 13 13 12 13 13 13 13 12 12 12 10 9 9 9 11 12 11 10 11 11 12 12 12 12 12 9 8 10 12 12 11 10 10 8
13 14 13 13 13 13 13 12 11 11 11 12 13 13 12 12 11 10 11 11 11 11 11 12 12 12 12 12 13 12 9 9 11 12 12 13 14 14 14 12 11 12 12 13 14 15 15 14 13 12 12 12 11 10 11 13 14 14 12 12 13 12 12 11 10 10 11 11 11 12 12 11 11 11 10 8 8 9 11 10 9 9 10 9 9
14 13 11 11 12 12 13 12 12 11 10 10 11 12 12 12 12 12 12 11 11 11 11 11 11 12 12 12 13 11 11 12 13 12 11 13 14 15 14 12 13 15 15 14 15 16 15 14 13 14 16 16 14 11 11 13 14 14 13 13 14 14 14 15 14 13 12 11 12 12 10 9 9 8 6 6 8 11 11 10 9 9 9 9 10
14 13 12 11 11 12 12 12 12 11 10 9 9 11 12 12 12 12 11 11 10 10 10 10 10 11 11 12 12 11 11 13 13 13 14 15 16 16 15 14 16 19 18 17 18 18 16 14 13 13 14 15 15 13 12 14 14 13 13 14 15 14 15 16 16 15 13 12 12 11 8 6 6 6 5 6 8 9 10 10 9 8 9 9 10
13 13 12 12 11 10 10 11 11 10 10 10 9 9 10 10 11 11 10 10 9 8 9 9 8 8 9 11 12 10 8 10 12 14 15 16 18 17 15 14 15 16 17 17 19 20 18 15 14 14 13 13 15 16 14 14 15 14 16 17 16 15 15 14 13 11 10 9 9 9 7 4 4 5 6 7 8 8 8 8 7 7 8 8 9
13 12 11 11 11 12 11 9 9 8 8 9 8 7 8 8 9 9 8 8 7 7 7 7 6 6 6 7 8 8 8 10 13 15 16 17 17 14 12 12 12 14 16 17 18 18 16 12 12 13 13 13 16 17 17 16 16 16 18 19 18 15 14 16 16 13 11 10 10 9 8 7 6 6 6 5 5 6 7 7 6 7 8 7 9
10 10 10 11 12 12 11 9 8 7 7 7 7 6 6 6 6 6 6 7 6 6 6 6 4 3 2 3 5 5 7 11 13 14 15 16 13 10 9 10 11 12 13 14 15 13 11 9 8 8 8 10 14 17 18 18 17 16 17 19 18 14 9 9 12 12 11 11 11 10 9 7 5 3 2 0 1 3 5 6 6 7 8 6 7
9 10 10 10 11 11 9 9 8 7 6 5 5 4 4 4 4 5 5 5 5 5 6 5 4 3 2 2 3 2 4 9 10 10 11 12 11 9 8 8 10 11 11 12 11 8 7 9 9 7 6 9 12 14 15 15 13 12 14 16 16 14 10 5 7 9 8 8 7 6 5 4 4 4 4 3 3 4 6 7 6 6 7 6 6
8 10 8 6 7 8 8 7 7 6 5 4 3 3 4 4 5 6 6 6 5 5 4 4 3 2 2 2 2 2 2 7 7 7 8 9 8 7 7 8 10 10 11 12 10 4 4 7 8 7 7 9 10 11 11 11 9 9 11 12 12 13 12 8 7 7 5 4 3 4 5 6 7 5 4 4 5 6 8 7 7 6 6 6 6
7 8 8 6 6 7 7 6 5 5 7 7 5 4 4 5 6 7 6 6 5 5 4 4 4 4 4 4 5 5 3 5 6 7 8 8 7 5 5 6 7 7 10 12 8 2 2 5 6 6 7 9 10 10 11 10 9 9 10 10 10 11 10 8 8 9 9 9 9 9 8 7 6 6 7 7 6 7 8 8 8 7 6 7 7
4 6 7 6 5 4 4 4 4 5 8 8 6 5 6 6 6 6 6 5 5 4 5 5 5 5 5 5 7 7 6 6 6 7 7 7 6 4 4 5 6 5 7 6 4 1 1 2 3 5 7 8 9 9 10 10 10 9 10 10 10 10 7 4 9 11 11 11 11 10 9 9 7 7 8 7 6 7 8 8 8 8 7 7 7
5 6 7 6 4 2 2 4 5 6 6 5 6 7 7 7 6 6 6 5 6 6 7 7 7 6 6 7 8 10 10 9 8 7 7 7 6 4 2 2 3 2 3 4 4 4 3 2 3 5 6 7 8 8 8 7 6 5 5 5 4 3 1 6 10 11 11 11 11 10 9 9 6 5 6 7 7 7 6 7 8 7 6 6 6
9 10 10 9 7 5 5 5 6 7 6 6 7 7 7 6 6 7 8 8 9 9 8 8 8 8 8 8 8 9 10 11 11 11 10 10 9 8 8 8 6 4 5 7 7 6 4 4 5 6 6 5 4 3 4 4 5 6 6 5 4 4 8 11 12 13 12 10 10 9 8 7 6 6 7 7 7 7 6 6 7 7 6 6 6
16 16 15 14 11 9 7 6 6 7 8 8 7 8 7 6 7 9 11 11 10 10 10 9 9 9 8 8 7 7 8 10 11 11 11 11 11 11 11 13 13 11 11 10 9 8 7 7 9 9 8 6 5 5 6 8 8 9 10 10 9 9 11 12 13 14 12 10 9 8 8 7 6 6 7 6 6 5 4 5 5 5 4 4 5
21 19 17 16 13 12 10 8 8 8 8 9 11 11 10 9 10 11 12 12 12 12 12 11 10 9 8 7 7 7 8 9 10 10 10 10 10 10 12 13 13 12 11 10 9 9 8 9 10 9 9 8 7 8 9 10 9 9 10 11 11 10 11 12 11 11 10 8 7 7 7 6 6 6 6 5 4 5 5 4 4 4 4 4 5
20 17 16 14 13 15 16 14 13 12 11 12 14 14 13 14 15 15 15 14 13 13 12 11 11 11 10 8 7 7 8 8 9 9 8 8 9 10 11 11 11 10 9 8 8 6 5 4 5 5 6 6 7 8 9 9 9 10 10 10 10 10 10 10 9 9 9 7 6 6 6 5 5 5 5 4 4 5 6 6 5 5 5 6 6
17 16 16 15 14 17 19 18 16 16 16 18 19 18 16 16 17 17 16 14 12 11 10 10 10 11 11 9 7 5 5 6 6 6 7 7 8 9 9 9 9 8 6 5 4 3 3 3 4 5 7 8 8 8 9 9 10 11 11 11 11 11 10 9 10 10 9 7 6 6 5 5 4 4 4 4 5 5 6 6 6 6 7 7 7
13 14 16 17 17 18 19 19 19 19 20 21 22 21 18 17 17 16 15 13 12 10 10 10 10 9 9 8 7 5 3 3 3 4 5 6 7 7 6 5 5 5 4 2 3 3 3 4 5 6 7 8 9 9 9 10 11 12 12 12 12 12 11 10 10 10 9 8 7 6 5 5 3 3 3 4 5 5 6 6 6 7 7 7 6
11 11 13 14 14 14 14 15 15 16 17 18 20 19 16 15 14 14 14 13 12 11 10 10 9 9 8 8 6 5 4 2 3 4 5 6 6 5 4 3 2 3 2 3 4 3 4 5 5 6 8 9 10 11 11 11 11 11 10 10 9 9 8 8 8 8 7 6 6 5 5 3 2 2 3 3 4 4 6 6 6 7 7 7 7
10 10 10 10 10 10 10 10 10 11 12 14 17 17 15 13 13 13 12 12 11 10 10 9 8 8 8 7 6 5 4 3 4 5 5 4 4 3 2 0 1 1 4 7 6 3 4 6 6 7 8 9 9 9 9 9 9 9 8 7 6 6 6 6 6 5 5 4 4 4 3 3 3 3 3 4 4 4 5 6 6 7 7 8 8
10 9 9 9 9 9 9 9 9 9 9 10 12 14 15 16 15 14 13 12 11 10 10 10 9 8 7 7 6 5 5 5 5 5 5 6 6 5 5 4 3 4 7 8 6 6 7 7 7 8 8 8 7 7 7 7 6 5 5 5 5 5 6 6 6 5 4 4 5 4 4 4 4 4 4 5 5 5 5 6 6 7 8 9 9
9 9 9 9 8 8 8 8 8 8 8 8 8 9 11 13 14 15 14 13 12 11 11 10 9 8 7 7 7 6 6 7 7 7 8 8 8 8 7 7 7 8 9 7 6 7 8 8 8 8 7 7 7 6 6 7 6 5 5 5 6 6 7 7 7 7 7 6 6 6 6 6 6 6 6 6 7 7 7 7 8 8 9 9 9
9 8 8 8 7 7 7 7 6 7 7 7 7 7 8 9 10 12 12 12 12 11 10 9 9 8 8 8 8 8 9 9 9 9 10 10 10 10 10 9 10 11 9 7 7 8 8 7 7 6 6 6 5 5 5 6 6 6 6 7 6 6 7 7 7 7 7 7 6 6 6 7 7 7 7 7 8 9 9 9 10 9 10 10 10
8 8 7 7 6 6 6 5 5 5 5 5 5 6 7 8 8 9 9 9 9 9 8 8 8 9 10 10 10 11 11 11 11 12 12 12 13 13 13 11 11 10 8 7 8 8 7 7 6 5 5 5 4 4 5 6 6 5 6 6 5 5 5 6 6 6 6 6 6 6 6 6 7 7 7 7 8 9 9 10 10 10 11 11 11
7 7 7 6 5 5 5 5 5 5 5 5 5 5 6 7 6 6 6 7 7 7 7 7 8 9 10 11 11 11 11 11 12 13 13 13 13 12 10 9 9 9 9 8 7 7 6 6 5 5 5 5 4 4 4 5 5 5 4 4 4 4 4 5 5 5 5 5 5 5 6 6 6 7 7 6 7 8 9 10 10 10 11 12 11
5 5 5 5 4 4 4 4 4 4 4 4 4 4 5 5 4 5 5 5 6 7 6 6 7 8 9 9 10 10 11 12 12 12 12 12 10 8 6 6 7 8 8 7 7 6 6 5 4 4 3 3 2 3 4 4 5 5 5 4 4 4 4 4 4 5 4 5 5 6 6 6 7 8 8 7 7 8 9 9 9 10 10 11 10
3 3 4 4 4 4 4 4 4 4 4 3 3 3 4 3 3 4 4 4 5 6 6 7 7 7 7 8 8 9 10 11 11 11 10 10 9 6 5 5 6 6 6 6 6 6 6 5 4 4 3 3 2 2 3 3 3 4 4 4 4 4 4 4 4 5 5 5 6 6 6 7 8 8 9 9 9 9 9 9 10 10 10 10 10
4 3 3 4 3 4 5 5 5 4 3 3 2 2 3 3 3 3 3 4 4 5 5 7 6 6 6 7 7 7 8 10 9 7 5 6 6 5 5 5 5 5 6 6 5 5 5 5 5 5 4 4 3 3 3 3 3 3 3 4 3 3 3 3 4 5 5 5 6 6 7 7 8 8 8 9 10 10 10 10 10 10 9 9 9
5 4 5 5 3 2 3 3 3 2 2 2 2 2 2 2 3 4 4 4 5 5 5 6 6 5 6 7 7 7 7 7 6 4 2 2 3 4 4 5 5 5 6 5 5 5 5 5 4 4 4 4 3 3 3 3 3 3 3 3 2 3 3 3 3 4 5 5 6 7 8 8 9 9 9 9 9 10 10 10 9 9 9 8 8
2 3 4 4 3 1 2 2 2 2 1 1 1 1 1 1 2 3 4 5 5 5 5 6 6 5 6 7 8 8 7 6 5 4 3 2 1 2 3 4 5 5 5 5 4 4 4 4 4 3 3 3 3 3 3 3 3 3 3 3 3 3 3 3 4 4 5 5 6 8 8 9 9 10 9 9 10 10 9 9 8 8 8 8 8
1 1 2 2 2 2 2 2 2 2 2 1 1 0 1 1 1 2 3 4 5 5 5 5 5 4 6 8 9 9 8 7 6 6 6 4 3 2 2 3 4 5 4 4 4 4 4 4 3 3 3 3 3 3 3 3 4 4 4 4 4 3 3 3 3 4 5 6 6 7 8 9 9 10 10 10 10 9 8 8 8 8 7 7 7
3 3 2 1 1 2 2 2 2 2 3 2 2 2 1 1 2 2 2 3 4 4 5 5 3 3 4 6 8 9 9 8 6 6 6 6 5 4 2 3 4 4 4 4 4 4 3 3 3 2 3 3 3 3 4 4 4 5 5 4 5 5 4 4 3 4 4 5 6 6 7 8 9 9 9 9 9 9 8 8 8 8 8 8 8
4 4 4 4 4 4 4 3 3 4 4 4 3 3 3 3 3 3 3 4 4 5 5 5 4 3 3 5 6 8 10 9 7 6 6 6 5 5 4 4 4 5 5 4 4 3 3 2 2 3 3 3 3 3 3 4 4 5 5 5 5 6 6 6 5 5 5 5 6 6 7 8 8 9 9 9 9 9 9 8 8 8 9 9 9
3 4 4 5 5 5 4 5 6 6 5 4 5 5 6 6 7 7 7 7 7 7 7 8 7 5 4 4 6 8 10 10 8 7 7 6 6 5 5 5 5 5 4 4 3 3 2 2 3 3 3 2 2 2 3 3 4 4 5 6 7 7 7 7 7 6 5 6 6 7 7 7 8 8 8 9 9 9 8 8 8 8 9 9 9
4 4 4 5 5 4 4 4 5 5 5 6 7 8 8 8 9 10 10 10 10 9 9 10 9 7 5 6 7 8 9 9 8 7 8 8 7 6 6 6 6 5 4 4 4 3 3 3 3 2 1 1 2 2 3 4 5 6 6 7 7 7 7 6 5 4 5 5 6 7 7 7 7 8 8 9 9 9 8 8 8 8 8 9 9
4 4 5 5 5 5 5 4 4 5 6 7 8 8 8 9 9 10 10 10 10 10 11 11 11 9 8 8 8 8 8 8 8 8 9 9 8 8 7 7 6 5 4 4 4 4 4 3 2 2 1 1 2 3 4 5 6 6 6 6 6 6 5 4 3 4 5 5 6 6 6 6 7 7 8 9 9 9 9 9 8 8 9 9 9
4 4 5 4 4 5 6 5 5 6 7 7 8 8 9 9 9 9 9 8 8 9 10 11 10 10 10 9 9 8 8 8 8 9 9 9 9 9 8 7 7 6 5 5 5 5 5 4 2 2 2 0 2 4 5 6 6 6 6 6 5 3 2 2 3 4 5 5 6 6 6 7 7 7 8 9 9 9 9 9 9 8 9 9 9
5 6 6 5 6 6 7 7 7 7 8 8 8 8 9 9 8 8 8 7 7 8 9 9 9 8 9 9 9 9 9 9 9 9 10 10 9 9 8 8 7 6 5 5 5 4 4 3 2 2 1 1 4 5 6 6 6 6 6 5 3 3 3 3 4 5 5 5 6 6 6 6 7 7 8 9 9 9 9 9 9 9 9 9 9
7 7 7 8 8 8 8 9 9 9 9 9 9 9 9 9 8 8 8 7 7 7 7 7 8 7 7 7 8 8 8 9 9 9 9 8 9 9 8 7 6 6 5 4 4 4 3 3 2 2 2 4 5 6 6 6 7 7 5 3 4 6 6 5 5 5 5 5 6 6 6 6 7 7 8 8 9 9 9 9 9 10 10 9 10
7 8 8 9 9 9 8 9 9 9 9 9 9 9 9 9 8 8 7 7 8 7 6 6 5 5 5 6 6 6 6 7 7 7 7 7 7 7 7 7 6 6 5 4 4 4 4 3 3 3 4 5 6 6 6 7 7 5 3 3 5 7 6 5 5 6 5 5 5 6 6 6 7 7 8 8 9 9 10 10 10 10 10 10 10
6 6 7 7 7 7 7 7 8 8 8 8 8 8 8 8 8 8 7 7 7 7 6 4 4 3 3 3 3 4 6 6 6 7 7 7 6 6 6 6 6 6 5 4 4 4 4 4 5 5 6 7 7 7 7 6 4 4 4 6 9 9 5 4 5 6 5 5 5 6 6 6 7 7 8 8 9 10 10 10 10 10 10 10 10
Wind_Direction
200 201 203 204 205 203 203 204 207 211 214 217 220 222 221 222 223 221 219 219 219 219 222 227 229 229 231 231 232 234 231 232 234 230 229 232 237 246 249 246 250 256 259 260 261 261 260 260 263 265 267 269 271 272 270 268 264 264 267 266 266 268 260 267 283 292 297 302 306 313 321 322 324 331 332 332 333 333 332 326 321 321 326 334 329
202 202 204 206 207 206 205 204 206 211 214 216 218 219 218 217 219 219 220 219 219 222 223 225 227 228 232 234 235 236 235 234 237 236 234 235 239 244 245 242 245 250 254 255 256 258 258 257 259 261 261 261 265 270 273 274 273 270 271 273 275 276 266 264 282 292 295 301 306 310 314 314 319 327 327 328 331 328 326 327 326 324 327 334 331
204 202 204 208 208 208 208 207 207 210 214 216 217 218 216 214 214 217 220 220 218 220 224 225 225 226 230 233 234 237 238 238 239 240 239 241 245 250 251 249 248 250 252 253 253 253 253 254 257 259 262 263 264 270 274 275 278 279 278 280 283 285 280 269 271 282 291 298 301 304 310 311 313 318 318 319 322 321 321 327 328 326 326 333 333
203 201 203 208 209 209 209 209 209 210 212 215 217 218 218 214 214 216 220 223 221 219 222 225 225 224 228 232 233 235 237 238 240 241 241 244 247 251 254 253 254 255 256 257 257 255 254 255 257 259 262 263 264 268 270 268 270 273 273 274 276 280 281 274 268 272 282 289 293 297 302 303 303 307 310 313 319 319 317 322 325 325 329 335 335
202 201 203 206 207 210 211 210 211 211 213 215 216 217 219 217 216 217 220 224 225 223 221 224 225 225 228 231 232 233 235 236 240 243 243 245 248 251 253 253 254 256 257 258 257 256 256 256 257 259 257 257 260 263 267 268 269 270 271 273 277 279 281 280 274 268 270 279 287 290 292 293 294 298 303 307 315 319 317 320 323 327 331 333 333
200 201 202 204 205 208 211 212 213 212 214 217 216 216 219 219 218 218 219 222 224 225 225 224 226 226 229 232 231 230 232 233 236 241 244 246 247 250 253 254 254 255 256 256 255 253 254 255 255 257 255 255 259 263 267 270 268 268 268 272 281 284 285 294 291 280 272 276 282 285 287 291 293 297 300 302 310 316 318 322 325 328 330 331 333
196 199 201 203 203 205 209 213 215 215 214 217 219 217 217 219 218 217 217 219 220 224 226 225 225 228 229 233 234 231 231 233 234 237 241 244 245 247 250 252 252 253 253 254 254 254 254 255 253 252 251 252 256 259 262 264 265 267 270 277 288 287 288 303 305 294 285 282 285 293 298 300 300 301 301 298 301 307 313 318 322 325 328 329 332
193 196 199 202 203 203 207 211 214 216 215 216 219 220 219 219 219 219 218 218 219 223 225 224 225 229 230 232 234 234 233 234 235 236 238 240 242 244 248 251 252 252 251 253 256 258 260 261 258 255 251 248 251 256 259 264 269 271 276 282 286 287 289 296 299 298 297 295 296 302 301 299 299 301 303 302 301 304 311 314 315 321 325 326 331
192 194 197 202 204 205 206 208 211 214 214 215 217 220 222 220 218 219 220 222 224 225 227 229 228 229 231 233 234 236 236 236 235 233 234 238 244 247 248 249 250 252 252 254 258 263 267 268 268 274 272 254 245 253 260 265 267 268 274 276 273 277 284 289 292 296 296 293 295 297 295 294 300 306 309 311 309 306 307 311 313 318 322 322 328
192 195 198 202 203 202 202 204 207 210 211 212 214 216 220 221 220 220 222 225 229 231 232 234 234 235 235 234 236 238 239 240 237 232 234 241 247 250 252 252 252 254 256 259 262 263 265 265 265 273 279 269 262 267 271 269 264 261 260 259 260 267 274 284 293 290 282 283 293 300 299 302 309 310 309 310 310 310 311 315 317 321 324 324 325
196 198 201 202 200 197 198 199 200 206 210 212 213 214 217 220 221 221 221 224 228 231 233 235 238 242 241 240 241 240 242 245 242 242 252 259 256 253 253 252 252 257 263 265 266 265 264 264 264 263 265 266 267 273 280 282 278 268 260 257 260 262 257 262 275 278 278 287 299 303 304 306 308 306 306 311 316 322 320 317 320 325 327 327 323
209 207 205 204 199 197 201 200 199 203 208 211 214 214 215 217 218 219 221 224 226 228 232 236 239 242 245 246 247 249 260 265 251 247 260 271 270 263 258 259 264 269 269 266 266 268 267 266 268 270 271 270 264 259 270 281 283 279 273 267 264 260 251 250 257 265 277 291 296 298 301 304 305 306 311 320 322 320 317 317 322 323 321 321 319
213 214 212 211 207 205 206 203 202 204 205 210 213 213 214 215 216 219 222 226 229 231 232 235 237 242 245 248 251 256 266 270 265 259 261 269 273 269 265 269 270 265 262 262 264 269 269 266 267 274 278 281 278 269 264 267 270 274 277 271 264 262 260 257 258 262 271 283 288 291 296 297 301 309 320 324 318 316 315 315 317 317 314 315 317
206 208 208 210 210 211 212 208 205 202 201 204 208 212 217 217 217 219 221 224 227 231 237 240 242 245 246 248 255 255 249 253 264 269 268 269 273 270 262 258 257 256 258 261 264 265 265 265 267 273 277 280 282 277 266 261 261 262 265 262 254 254 261 262 260 259 262 270 277 283 289 286 290 305 317 319 317 317 316 317 319 317 315 316 315
204 202 203 206 203 205 212 214 211 204 202 205 207 212 217 219 221 221 220 222 222 226 235 241 247 254 254 255 259 257 248 253 262 264 264 266 270 270 261 252 251 255 258 262 263 263 261 258 260 268 273 275 278 276 265 262 266 262 257 253 245 244 251 249 242 240 246 258 270 276 276 266 278 301 311 314 316 315 314 315 314 308 308 318 319
206 202 199 196 192 194 199 205 208 204 205 211 213 215 218 221 223 220 217 218 216 215 222 225 237 257 267 272 272 265 258 260 260 259 261 265 267 269 264 256 250 249 255 260 261 259 257 252 257 273 280 276 275 271 258 254 262 264 259 257 255 253 245 229 223 227 235 244 252 254 254 260 277 292 297 305 315 317 311 304 302 309 314 325 325
200 196 192 187 186 187 182 181 191 197 205 214 216 215 216 218 217 214 216 213 202 205 213 207 210 231 255 288 289 275 259 258 259 262 266 267 266 265 263 263 259 257 261 262 260 261 259 246 244 268 279 265 258 258 255 257 264 267 266 266 268 273 265 231 230 244 248 249 251 248 249 258 266 267 266 34 20 359 346 333 332 336 332 331 326
179 177 178 179 179 178 174 175 184 191 201 216 226 223 207 201 213 222 226 215 199 205 207 190 189 206 206 239 255 265 278 276 273 276 278 274 269 262 259 263 268 271 272 268 265 264 250 237 236 239 242 248 254 259 264 269 273 276 277 279 282 288 295 273 244 251 250 249 250 238 222 197 168 158 138 113 86 57 41 19 3 356 340 334 329
160 167 170 165 163 166 170 174 177 184 188 188 211 232 211 199 214 225 223 215 211 216 213 198 197 196 168 161 144 116 328 308 304 305 303 296 285 273 270 272 273 277 279 279 282 278 232 243 262 267 261 267 277 285 285 283 288 295 294 295 295 293 291 276 245 230 212 188 165 145 139 136 138 134 107 81 66 66 63 40 21 17 351 332 328
131 157 168 170 169 170 173 173 176 198 204 193 192 216 218 206 206 210 209 204 201 202 195 181 165 140 121 102 91 91 59 5 352 339 326 317 310 300 290 283 283 295 297 288 282 274 228 259 277 285 289 291 293 298 299 294 296 303 301 300 299 297 293 266 217 188 163 149 143 134 118 98 84 72 64 59 52 56 57 46 39 33 2 335 330
149 159 161 171 184 184 181 176 179 206 216 207 194 197 207 199 189 192 198 188 178 177 169 158 139 116 108 98 87 84 74 48 24 5 349 334 321 304 283 276 279 305 325 310 281 222 175 265 291 298 303 306 306 308 308 305 304 304 306 309 304 298 293 219 178 167 157 149 140 125 97 70 57 55 58 55 46 46 48 47 47 39 20 1 344
151 152 146 153 162 141 136 156 179 197 202 189 173 174 184 189 183 183 184 165 151 147 140 132 119 105 100 95 93 92 87 75 63 50 38 23 12 8 355 325 289 286 357 16 12 4 3 14 355 336 326 323 321 321 324 327 334 339 345 356 343 314 209 160 156 147 139 132 118 97 77 67 62 56 53 49 41 37 38 44 46 41 34 27 7
108 111 113 119 118 109 112 132 157 167 161 157 161 156 158 172 173 160 150 140 131 126 121 116 110 105 100 94 93 94 87 78 71 63 57 53 51 55 62 63 60 64 67 62 47 28 19 40 44 26 5 348 337 349 9 32 55 59 61 69 83 110 128 139 138 126 114 102 90 82 74 69 66 53 44 37 32 30 34 41 43 42 40 35 26
94 90 90 95 98 103 110 117 123 130 133 140 145 141 142 147 134 125 128 129 123 114 109 109 108 105 103 99 94 90 84 78 73 68 65 64 63 62 64 62 58 59 62 63 61 61 63 73 78 72 58 54 70 85 82 80 76 75 83 88 91 102 112 116 115 108 99 86 78 76 69 61 61 55 44 33 25 23 27 32 32 33 31 22 14
84 80 79 81 83 89 96 98 96 101 116 132 136 134 134 128 114 109 114 117 115 112 111 113 111 106 104 102 96 92 88 82 80 77 73 68 62 58 57 56 55 59 65 67 69 76 83 87 86 82 73 70 76 83 84 77 69 81 96 90 83 94 106 104 100 97 92 89 86 80 70 64 63 61 53 43 29 17 10 9 8 7 3 353 343
76 76 77 77 79 83 84 84 85 87 94 110 119 120 118 113 108 105 106 107 108 113 116 118 117 115 112 109 104 96 90 88 87 83 75 64 53 47 47 47 47 51 64 74 76 75 77 83 80 69 65 70 78 84 86 78 70 81 90 82 79 90 96 93 91 90 86 85 83 80 78 74 70 67 62 55 44 30 18 9 2 357 354 346 334
80 81 82 81 83 86 86 84 85 87 88 91 95 98 100 102 102 101 101 102 106 113 118 121 122 121 118 116 113 100 86 87 88 78 63 49 39 35 31 30 28 30 42 66 69 51 42 54 59 54 54 62 72 79 85 85 83 86 88 83 84 89 86 83 89 94 96 97 94 89 86 77 67 65 62 55 48 36 26 16 5 354 348 340 328
90 90 90 90 89 90 91 88 85 85 86 87 88 89 89 93 96 98 100 102 106 113 121 124 123 122 122 125 124 115 100 90 74 56 36 19 17 18 11 9 14 10 11 58 87 78 74 71 65 66 69 73 79 85 90 93 92 92 92 93 93 93 88 84 84 87 92 98 100 98 95 87 75 68 60 51 40 28 20 15 4 352 344 334 321
99 96 98 100 100 98 95 92 90 90 91 91 91 90 91 94 98 102 104 106 108 114 121 127 128 126 129 134 135 133 129 107 58 40 14 355 355 357 343 330 342 347 10 102 116 112 110 105 94 92 95 95 96 99 101 101 98 93 91 92 92 89 82 76 75 78 82 89 94 93 89 83 72 61 51 40 29 19 15 7 356 347 341 329 317
96 97 102 106 107 106 104 102 102 103 102 99 95 93 93 95 98 103 106 108 110 113 120 127 129 129 132 132 125 115 100 64 41 34 17 6 10 7 355 142 148 57 91 112 117 112 111 109 102 100 102 101 102 104 104 103 101 97 93 86 79 76 74 65 64 69 71 70 72 74 71 62 46 29 22 18 8 0 3 0 348 338 332 324 318
91 96 103 104 102 105 106 105 104 103 103 102 99 95 90 85 85 90 96 102 108 114 119 121 119 116 117 113 101 86 70 61 57 55 52 52 55 60 72 93 112 114 113 114 113 109 110 107 103 104 102 96 93 95 95 94 89 88 91 85 68 60 59 52 40 35 41 48 48 44 35 30 24 13 5 2 352 341 343 345 337 330 327 324 321
93 95 102 103 101 103 105 103 103 104 102 100 101 102 96 88 83 83 88 96 103 109 111 111 107 101 96 93 89 84 82 82 78 71 67 65 63 66 74 85 103 115 117 115 112 112 115 116 116 113 109 102 94 86 82 80 68 56 62 71 63 52 50 47 36 28 29 29 29 28 21 15 10 2 356 354 348 341 338 337 332 329 327 322 319
94 98 105 108 106 105 105 104 102 104 104 104 106 108 107 102 96 92 92 95 98 99 100 99 98 98 98 98 100 101 98 92 86 81 78 74 72 74 78 90 105 116 119 121 122 120 117 117 116 113 111 110 105 91 81 77 69 58 59 65 64 56 51 47 41 38 37 31 26 24 18 10 4 356 352 353 348 340 335 331 327 325 323 321 319
92 98 105 112 112 109 107 105 104 101 99 102 109 112 110 110 112 112 110 106 103 101 100 99 101 104 106 106 107 108 104 97 91 88 84 81 81 80 78 83 97 110 114 117 120 120 116 115 112 105 97 92 87 81 75 69 65 63 61 62 64 57 48 42 39 36 34 29 28 27 21 17 12 1 353 350 345 337 332 329 328 327 327 324 322
99 104 106 111 115 115 110 108 109 109 108 109 114 117 119 122 127 129 127 124 121 117 111 109 112 114 113 111 112 112 107 101 97 94 92 90 87 84 82 86 96 102 105 109 113 115 114 116 114 104 91 83 75 71 69 64 61 58 52 52 55 47 37 33 33 32 23 17 21 26 21 16 10 359 350 342 336 332 328 325 326 327 325 322 321
103 110 114 115 118 118 116 116 120 125 128 130 130 128 134 142 144 138 134 134 134 132 128 126 128 128 124 121 119 117 115 112 107 104 102 97 90 83 88 101 102 100 102 105 106 105 107 111 112 104 92 82 68 57 58 60 56 46 39 36 32 29 28 25 27 32 27 11 7 8 3 356 350 343 336 329 324 322 320 319 319 318 316 316 316
87 98 105 107 112 116 117 118 122 125 127 135 142 149 158 162 155 152 153 150 147 145 141 142 147 149 144 139 132 127 126 125 119 110 101 93 84 77 81 93 96 98 100 98 96 99 99 95 91 87 82 74 61 51 51 47 34 22 19 12 5 12 24 22 15 15 10 356 348 345 341 339 339 337 335 330 324 321 321 321 319 316 315 313 311
75 86 102 110 113 119 121 121 122 124 132 147 159 174 187 186 181 186 183 169 167 171 163 161 170 176 166 160 153 141 137 137 134 123 104 84 76 75 80 88 92 95 95 91 90 92 91 85 80 76 71 65 58 49 42 33 18 4 355 348 345 353 7 7 0 357 353 344 339 335 330 328 330 331 332 329 324 322 323 322 318 317 318 317 314
80 99 121 129 130 129 136 142 142 138 139 147 150 173 201 199 199 209 208 196 197 202 192 187 196 200 181 168 167 167 167 169 170 167 148 110 83 79 86 94 94 93 94 95 93 92 91 87 81 74 67 61 54 44 31 20 12 5 352 342 333 332 338 341 339 340 340 337 332 329 325 323 324 324 324 324 323 322 321 319 318 319 318 316 318
71 86 109 123 135 148 164 182 195 201 194 151 133 149 174 190 206 215 212 210 215 218 214 213 219 215 191 176 176 186 200 210 209 202 196 184 142 100 99 107 109 106 106 105 97 96 98 94 87 81 72 60 47 33 18 4 356 352 343 335 332 331 335 342 344 342 340 336 329 324 322 323 324 323 322 323 324 322 320 319 319 319 316 314 318
290 90 108 116 125 151 185 210 218 213 212 214 200 180 144 159 196 211 213 220 227 227 227 230 228 211 196 195 200 210 227 238 227 213 213 211 199 180 138 121 119 116 116 112 105 100 97 90 84 79 67 54 35 20 11 3 354 348 342 338 337 334 332 341 349 347 341 334 327 321 320 324 325 324 324 325 323 321 320 320 320 319 317 316 318
271 255 231 208 196 209 221 225 208 197 207 220 229 241 255 238 227 227 228 237 243 241 237 238 230 208 213 226 223 221 231 247 244 227 223 219 206 193 177 149 132 122 117 115 109 103 99 94 87 78 66 53 38 26 19 9 355 346 342 342 341 336 332 334 342 345 337 328 324 321 322 324 325 322 322 325 325 324 324 324 323 322 322 322 323
284 269 256 248 248 249 247 243 231 223 227 236 243 249 254 252 247 243 240 242 251 253 250 249 239 223 242 263 248 227 227 240 244 232 225 219 202 186 180 169 146 128 119 116 112 109 109 104 93 86 79 68 52 32 14 3 357 350 347 343 337 330 325 324 325 326 322 317 315 317 318 320 322 322 322 325 327 326 325 324 324 326 327 327 326
295 280 268 261 262 262 259 259 259 256 255 257 254 251 251 252 252 251 249 249 251 254 257 259 256 244 244 262 256 236 231 237 240 229 215 202 191 187 189 178 154 137 131 129 126 121 122 121 113 104 93 75 54 31 15 10 6 351 336 328 321 315 313 313 312 312 314 313 312 312 313 316 319 321 322 326 327 325 324 326 327 327 326 325 325
296 289 278 269 267 264 260 264 272 271 269 268 264 261 259 259 260 260 260 258 256 256 259 262 263 256 243 240 241 237 234 234 231 219 203 191 186 187 184 169 153 147 145 144 142 142 145 146 141 134 121 80 43 23 12 1 348 334 326 321 315 311 310 310 308 310 316 317 315 313 314 319 322 323 325 329 330 327 326 328 327 325 326 326 325
298 297 287 279 278 274 271 276 284 282 280 280 278 275 273 270 269 270 270 268 266 266 265 263 259 251 241 238 240 240 236 230 218 205 198 195 192 187 178 164 155 157 162 160 161 164 165 161 162 161 148 103 10 349 336 328 323 320 316 313 310 306 304 306 312 317 319 323 324 321 319 321 324 326 329 332 332 331 330 329 328 326 328 328 325
293 289 286 286 286 279 274 276 282 285 285 284 283 283 284 283 280 278 276 273 273 276 275 271 263 251 240 237 238 235 233 229 216 200 194 192 187 178 168 161 163 170 174 174 174 174 170 168 170 164 151 120 324 317 313 313 315 314 311 310 309 299 279 296 324 323 318 322 325 324 324 325 325 328 333 335 335 334 332 330 328 326 326 326 323
287 284 283 285 282 278 277 279 281 281 282 283 283 283 284 284 283 281 279 276 274 275 276 277 272 258 243 238 238 235 232 227 216 201 190 182 174 166 162 165 174 183 185 181 179 179 178 182 188 182 173 297 305 303 305 306 306 307 308 307 293 263 252 273 304 313 317 323 324 321 323 326 326 328 333 336 336 335 333 330 329 328 325 323 322
283 280 280 280 279 280 282 284 283 282 284 286 285 282 282 283 283 284 284 283 281 279 277 278 275 264 248 241 241 238 229 219 209 199 188 176 166 163 165 171 179 186 193 198 200 199 201 212 222 229 265 297 299 296 298 298 298 300 300 279 265 275 277 271 276 291 302 314 320 320 319 321 324 327 329 332 334 334 332 329 328 326 323 321 320
281 280 280 280 281 282 284 284 282 281 282 284 283 281 281 281 281 284 288 290 289 288 286 284 278 269 258 250 243 228 214 205 194 184 180 178 175 172 173 174 175 181 195 209 213 210 220 239 247 253 279 298 298 292 293 294 291 284 257 238 272 295 296 278 272 286 297 305 312 314 314 314 317 321 324 328 332 333 331 328 326 324 321 320 318
282 280 280 280 282 284 285 285 284 284 284 285 284 283 283 282 281 283 288 289 289 292 295 292 286 281 270 254 230 211 205 201 188 178 179 185 187 186 184 181 176 179 192 207 214 221 239 254 259 267 282 293 293 290 292 288 268 247 250 271 289 299 297 271 269 283 292 298 303 306 306 308 310 313 316 320 324 326 327 326 324 320 318 315 313